Regional Weather Roundup
Issued by NWS

Home | Current Version | Previous Version | Text Only | Print | Product List | Glossary Off
Versions: 1 2 3 4 5 6 7 8 9 10 11 12 13 14 15 16 17 18 19 20 21 22 23 24 25 26 27

018
ASUS45 KBOU 220907
RWRCO

WEATHER ROUNDUP FOR COLORADO
NATIONAL WEATHER SERVICE DENVER/BOULDER CO
300 AM MDT FRI MAY 22 2015

NOTE: "FAIR" INDICATES FEW OR NO CLOUDS BELOW 12000 FEET WITH NO
SIGNIFICANT WEATHER AND/OR OBSTRUCTIONS TO VISIBILITY.

COZ001>005-013-030-031-221000-
...NORTHWEST COLORADO...

CITY           SKY/WX    TMP DP  RH WIND       PRES   REMARKS
CRAIG          CLOUDY    46  41  82 E7        29.97S
HAYDEN         CLOUDY    45  37  76 E15       29.98F
MEEKER         MOCLDY    46  41  82 NE8       29.98S
MOUNT WERNER   NOT AVBL
STEAMBOAT SPGS CLOUDY    42  37  85 NE10      30.00F
WALDEN         CLOUDY    41  36  81 CALM      30.04F
$$

COZ006>008-011-221000-
...WEST CENTRAL VALLEYS...

CITY           SKY/WX    TMP DP  RH WIND       PRES   REMARKS
GRAND JUNCTION LGT RAIN  49  45  86 SE18G29   29.97R
MONTROSE       CLOUDY    49  43  80 NE3       30.03F
EAGLE          CLOUDY    46  46 100 W3        30.05R
RIFLE          LGT RAIN  49  44  83 E9        29.98R
DELTA          LGT RAIN  51  48  88 NE9       30.00F
NUCLA          CLOUDY    46  43  87 SE7       30.05S
$$

COZ017>023-064>068-221000-
...SOUTHWEST COLORADO...

CITY           SKY/WX    TMP DP  RH WIND       PRES   REMARKS
DURANGO        CLOUDY    43  41  93 N5        30.08S
CORTEZ         PTCLDY    48  41  76 NE5       30.01F
PAGOSA SPRINGS CLOUDY    37  37  99 CALM      30.13F
TELLURIDE      CLOUDY    37  34  90 SE5       30.12F
WOLF CREEK PAS NOT AVBL
$$

COZ009-010-012-014-032>034-037-058>063-221000-
...CENTRAL COLORADO...

CITY           SKY/WX    TMP DP  RH WIND       PRES   REMARKS
ASPEN          CLOUDY    43  41  93 N3        30.03S
BUENA VISTA    RAIN      38  36  90 CALM      30.09S
COPPER MTN     CLOUDY    34  28  80 S5        30.17F WCI  30
BERTHOUD PASS  HAZE      27  19  74 SE17      30.20S VSB<1/4 WCI  14
COTTONWOOD PAS FOG       36  34  93 E5        30.12S VSB 3/4
GUNNISON       CLOUDY    46  36  66 SW14      30.08R
KREMMLING      DRIZZLE   43  37  81 CALM      30.05S
LEADVILLE      SNOW      32  32 100 S3        30.10S VSB 1/2
SALIDA         CLOUDY    42  39  92 CALM      30.15S
SUNLIGHT       LGT SNOW  34  34 100 CALM      30.16F VSB 3/4
WILKERSON PASS LGT SNOW  32  30  93 S6        30.17F VSB 3/4 WCI  26
$$

COZ069>075-221000-
...SAN LUIS VALLEY/SANGRE DE CRISTO MOUNTAINS...

CITY           SKY/WX    TMP DP  RH WIND       PRES   REMARKS
ALAMOSA        CLOUDY    42  37  82 S9        30.06S
LA VETA PASS   LGT SNOW N/A N/A N/A MISG      30.09F VSB 3/4
SAGUACHE       CLOUDY    43  41  93 SE5       30.07F
$$

COZ035-036-038>040-221000-
...NORTHERN COLORADO FRONT RANGE...

CITY           SKY/WX    TMP DP  RH WIND       PRES   REMARKS
DENVER INTL AP CLOUDY    47  44  90 SE12      30.02F
DMNS CITY PARK   N/A     49  43  80 SE3       30.01F
AURORA         MOCLDY    46  46  99 SE8       30.03F
FRONT RANGE AP DRIZZLE   46  45  93 SE12      30.04F
ERIE MUNI ARPT CLOUDY    49  46  87 SE6       30.02F
BOULDER MUN AP CLOUDY    48  46  93 CALM      30.01F
CENTENNIAL     LGT RAIN  46  42  86 SE10      30.02F
BROOMFIELD     CLOUDY    48  45  87 SE5       30.03F
FORT COLLINS   CLOUDY    48  45  87 SE9       30.04F
LONGMONT       CLOUDY    51  47  84 SE5       30.04S
$$

COZ041-046-047-076>085-087-088-221000-
...PIKES PEAK/PALMER DIVIDE AND SOUTHERN FOOTHILLS...

CITY           SKY/WX    TMP DP  RH WIND       PRES   REMARKS
COLO. SPRINGS  LGT RAIN  45  44  97 CALM      30.04F FOG
A. F. ACADEMY  DRIZZLE   42  42 100 SW2       30.03F
ELLICOTT       NOT AVBL
FALCON         DRZL/FOG  42  42 100 S14       30.05F VSB 1/2
FORT CARSON    LGT RAIN  45 N/A N/A NW1       30.03S
LIMON          CLOUDY    43  43 100 SE15      30.05F
MONUMENT HILL  NOT AVBL
TRINIDAD       LGT RAIN  45  42  89 SW7       30.04S
$$

COZ042>045-048>051-090-091-221000-
...NORTHEAST COLORADO...

CITY           SKY/WX    TMP DP  RH WIND       PRES   REMARKS
GREELEY ARPT   CLOUDY    48  45  87 SE12      30.04F
AKRON          CLOUDY    46  44  93 SE15      30.08F
BURLINGTON     LGT RAIN  47  45  93 SE14      30.10F
WRAY           CLOUDY    50  46  83 SE8       30.11F
STERLING       CLOUDY    50  45  81 S9        30.08F
HOLYOKE        NOT AVBL
FORT MORGAN    CLOUDY    47  44  88 SE10      30.07F
$$

COZ086-089-092>099-221000-
...SOUTHEAST COLORADO...

CITY           SKY/WX    TMP DP  RH WIND       PRES   REMARKS
PUEBLO         CLOUDY    48  47  96 E12       30.01S
LA JUNTA       LGT RAIN  49  47  93 SE14      30.03R
LAMAR          CLOUDY    49  48  97 E13       30.04S
SPRINGFIELD      N/A     47  46  97 SE16      30.07R
$$



USA.gov is the U.S. government's official web portal to all federal, state and local government web resources and services.